Time,TemperatureF,DewpointF,PressureIn,WindDirection,WindDirectionDegrees,WindSpeedMPH,WindSpeedGustMPH,Humidity,HourlyPrecipIn,Conditions,Clouds,dailyrainin,SoftwareType,DateUTC
2013-05-25 00:04:00,60.3,39.0,0.00,NW,319,4.0,10.0,45,0.00,,,0.00,weatherlink.com 1.10,2013-05-25 02:04:00,
2013-05-25 00:20:00,60.2,39.0,0.00,NE,36,6.0,13.0,45,0.00,,,0.00,weatherlink.com 1.10,2013-05-25 02:20:00,
2013-05-25 00:37:00,59.7,40.0,0.00,NNW,329,6.0,13.0,48,0.00,,,0.00,weatherlink.com 1.10,2013-05-25 02:37:00,
2013-05-25 00:53:00,59.0,40.0,0.00,NNW,340,6.0,13.0,49,0.00,,,0.00,weatherlink.com 1.10,2013-05-25 02:53:00,
2013-05-25 01:09:00,58.4,40.0,0.00,NNW,344,4.0,9.0,50,0.00,,,0.00,weatherlink.com 1.10,2013-05-25 03:09:00,
2013-05-25 01:26:00,58.4,39.0,0.00,NNW,342,4.0,12.0,49,0.00,,,0.00,weatherlink.com 1.10,2013-05-25 03:26:00,
2013-05-25 01:42:00,57.8,40.0,0.00,NNW,344,3.0,11.0,51,0.00,,,0.00,weatherlink.com 1.10,2013-05-25 03:42:00,
2013-05-25 01:58:00,57.2,40.0,0.00,North,355,2.0,9.0,53,0.00,,,0.00,weatherlink.com 1.10,2013-05-25 03:58:00,
2013-05-25 02:15:00,56.4,40.0,0.00,NNW,336,7.0,8.0,54,0.00,,,0.00,weatherlink.com 1.10,2013-05-25 04:15:00,
2013-05-25 02:31:00,56.1,40.0,0.00,NW,318,3.0,9.0,55,0.00,,,0.00,weatherlink.com 1.10,2013-05-25 04:31:00,
2013-05-25 02:47:00,56.1,40.0,0.00,NNW,337,6.0,13.0,55,0.00,,,0.00,weatherlink.com 1.10,2013-05-25 04:47:00,
2013-05-25 03:04:00,54.9,40.0,0.00,NW,322,5.0,8.0,58,0.00,,,0.00,weatherlink.com 1.10,2013-05-25 05:04:00,
2013-05-25 03:21:00,53.1,40.0,0.00,NW,319,3.0,4.0,62,0.00,,,0.00,weatherlink.com 1.10,2013-05-25 05:21:00,
2013-05-25 03:37:00,52.6,41.0,0.00,WNW,287,4.0,4.0,64,0.00,,,0.00,weatherlink.com 1.10,2013-05-25 05:37:00,
2013-05-25 03:53:00,50.2,41.0,0.00,WNW,286,2.0,4.0,70,0.00,,,0.00,weatherlink.com 1.10,2013-05-25 05:53:00,
2013-05-25 04:10:00,49.1,41.0,0.00,WNW,286,0.0,2.0,73,0.00,,,0.00,weatherlink.com 1.10,2013-05-25 06:10:00,
2013-05-25 04:26:00,48.0,40.0,28.41,NW,314,3.0,8.0,75,0.00,,,0.00,weatherlink.com 1.10,2013-05-25 06:26:00,
2013-05-25 04:43:00,48.2,41.0,28.41,WNW,286,5.0,6.0,75,0.00,,,0.00,weatherlink.com 1.10,2013-05-25 06:43:00,
2013-05-25 04:59:00,48.9,41.0,28.41,WNW,300,3.0,6.0,73,0.00,,,0.00,weatherlink.com 1.10,2013-05-25 06:59:00,
2013-05-25 05:15:00,49.4,40.0,28.41,WNW,296,4.0,5.0,71,0.00,,,0.00,weatherlink.com 1.10,2013-05-25 07:15:00,
2013-05-25 05:32:00,50.3,40.0,28.41,NW,309,4.0,7.0,68,0.00,,,0.00,weatherlink.com 1.10,2013-05-25 07:32:00,
2013-05-25 05:48:00,50.5,40.0,28.41,NW,317,4.0,6.0,68,0.00,,,0.00,weatherlink.com 1.10,2013-05-25 07:48:00,
2013-05-25 06:05:00,47.9,41.0,28.41,WNW,303,2.0,4.0,77,0.00,,,0.00,weatherlink.com 1.10,2013-05-25 08:05:00,
2013-05-25 06:21:00,45.5,41.0,28.41,WNW,295,0.0,2.0,85,0.00,,,0.00,weatherlink.com 1.10,2013-05-25 08:21:00,
2013-05-25 06:38:00,43.9,41.0,28.41,WNW,295,0.0,2.0,88,0.00,,,0.00,weatherlink.com 1.10,2013-05-25 08:38:00,
2013-05-25 06:54:00,44.1,41.0,0.00,WNW,295,0.0,2.0,88,0.00,,,0.00,weatherlink.com 1.10,2013-05-25 08:54:00,
2013-05-25 07:10:00,43.6,40.0,30.22,WNW,295,0.0,4.0,88,0.00,,,0.00,weatherlink.com 1.10,2013-05-25 09:10:00,
2013-05-25 07:27:00,43.8,40.0,30.22,WNW,295,0.0,2.0,86,0.00,,,0.00,weatherlink.com 1.10,2013-05-25 09:27:00,
2013-05-25 07:43:00,45.0,40.0,30.22,WNW,295,0.0,2.0,81,0.00,,,0.00,weatherlink.com 1.10,2013-05-25 09:43:00,
2013-05-25 07:59:00,44.8,39.0,30.22,WNW,295,3.0,3.0,81,0.00,,,0.00,weatherlink.com 1.10,2013-05-25 09:59:00,
2013-05-25 08:16:00,43.2,39.0,30.22,WNW,295,1.0,3.0,85,0.00,,,0.00,weatherlink.com 1.10,2013-05-25 10:16:00,
2013-05-25 08:32:00,43.5,40.0,30.22,NW,324,1.0,3.0,87,0.00,,,0.00,weatherlink.com 1.10,2013-05-25 10:32:00,
2013-05-25 08:49:00,43.8,40.0,30.22,NNW,336,0.0,3.0,88,0.00,,,0.00,weatherlink.com 1.10,2013-05-25 10:49:00,
2013-05-25 09:05:00,44.7,41.0,30.22,NNW,344,0.0,2.0,87,0.00,,,0.00,weatherlink.com 1.10,2013-05-25 11:05:00,
2013-05-25 09:22:00,45.6,42.0,30.22,NNW,343,0.0,4.0,88,0.00,,,0.00,weatherlink.com 1.10,2013-05-25 11:22:00,
2013-05-25 09:38:00,46.9,44.0,0.00,East,88,0.0,2.0,88,0.00,,,0.00,weatherlink.com 1.10,2013-05-25 11:38:00,
2013-05-25 09:54:00,49.8,44.0,0.00,NNW,335,0.0,3.0,81,0.00,,,0.00,weatherlink.com 1.10,2013-05-25 11:54:00,
2013-05-25 10:10:00,52.0,45.0,0.00,WNW,296,2.0,3.0,76,0.00,,,0.00,weatherlink.com 1.10,2013-05-25 12:10:00,
2013-05-25 10:27:00,54.3,45.0,0.00,West,265,5.0,6.0,70,0.00,,,0.00,weatherlink.com 1.10,2013-05-25 12:27:00,
2013-05-25 10:43:00,56.0,45.0,0.00,WSW,250,0.0,5.0,67,0.00,,,0.00,weatherlink.com 1.10,2013-05-25 12:43:00,
2013-05-25 10:59:00,57.5,45.0,0.00,WNW,290,4.0,6.0,62,0.00,,,0.00,weatherlink.com 1.10,2013-05-25 12:59:00,
2013-05-25 11:16:00,58.4,44.0,20.89,SW,228,4.0,5.0,58,0.00,,,0.00,weatherlink.com 1.10,2013-05-25 13:16:00,
2013-05-25 11:32:00,59.0,42.0,20.89,WSW,240,0.0,5.0,53,0.00,,,0.00,weatherlink.com 1.10,2013-05-25 13:32:00,
2013-05-25 11:49:00,61.0,44.0,20.89,South,190,3.0,5.0,54,0.00,,,0.00,weatherlink.com 1.10,2013-05-25 13:49:00,
2013-05-25 12:05:00,61.0,43.0,20.89,South,191,2.0,5.0,52,0.00,,,0.00,weatherlink.com 1.10,2013-05-25 14:05:00,
2013-05-25 12:22:00,61.3,41.0,20.89,SW,225,3.0,8.0,47,0.00,,,0.00,weatherlink.com 1.10,2013-05-25 14:22:00,
2013-05-25 12:38:00,62.1,42.0,20.89,WNW,288,5.0,7.0,47,0.00,,,0.00,weatherlink.com 1.10,2013-05-25 14:38:00,
2013-05-25 12:55:00,63.9,42.0,20.89,WNW,286,4.0,7.0,45,0.00,,,0.00,weatherlink.com 1.10,2013-05-25 14:55:00,
2013-05-25 13:11:00,64.4,41.0,20.89,WNW,282,2.0,6.0,43,0.00,,,0.00,weatherlink.com 1.10,2013-05-25 15:11:00,
2013-05-25 13:28:00,64.9,41.0,20.89,WNW,284,5.0,7.0,42,0.00,,,0.00,weatherlink.com 1.10,2013-05-25 15:28:00,
2013-05-25 13:44:00,65.4,43.0,20.89,SW,232,4.0,6.0,44,0.00,,,0.00,weatherlink.com 1.10,2013-05-25 15:44:00,
2013-05-25 14:00:00,66.5,45.0,20.89,SW,230,9.0,9.0,46,0.00,,,0.00,weatherlink.com 1.10,2013-05-25 16:00:00,
2013-05-25 14:17:00,68.2,45.0,20.89,West,279,6.0,10.0,44,0.00,,,0.00,weatherlink.com 1.10,2013-05-25 16:17:00,
2013-05-25 14:33:00,68.9,44.0,20.89,WSW,253,2.0,10.0,41,0.00,,,0.00,weatherlink.com 1.10,2013-05-25 16:33:00,
2013-05-25 14:50:00,69.5,43.0,20.89,NNW,342,3.0,10.0,39,0.00,,,0.00,weatherlink.com 1.10,2013-05-25 16:50:00,
2013-05-25 15:06:00,70.6,43.0,32.03,South,180,4.0,9.0,37,0.00,,,0.00,weatherlink.com 1.10,2013-05-25 17:06:00,
2013-05-25 15:23:00,71.1,42.0,32.03,West,272,2.0,8.0,35,0.00,,,0.00,weatherlink.com 1.10,2013-05-25 17:23:00,
2013-05-25 15:39:00,72.2,38.0,32.03,SW,220,3.0,8.0,29,0.00,,,0.00,weatherlink.com 1.10,2013-05-25 17:39:00,
2013-05-25 15:55:00,72.7,43.0,32.01,SW,232,0.0,7.0,34,0.00,,,0.00,weatherlink.com 1.10,2013-05-25 17:55:00,
2013-05-25 16:11:00,73.5,43.0,32.01,WNW,294,2.0,9.0,34,0.00,,,0.00,weatherlink.com 1.10,2013-05-25 18:11:00,
2013-05-25 16:28:00,73.6,42.0,0.00,NW,304,0.0,9.0,32,0.00,,,0.00,weatherlink.com 1.10,2013-05-25 18:28:00,
2013-05-25 16:44:00,74.0,42.0,30.21,WNW,287,4.0,9.0,32,0.00,,,0.00,weatherlink.com 1.10,2013-05-25 18:44:00,
2013-05-25 17:00:00,74.7,43.0,30.21,WSW,256,5.0,14.0,32,0.00,,,0.00,weatherlink.com 1.10,2013-05-25 19:00:00,
2013-05-25 17:17:00,75.0,42.0,30.21,WSW,257,0.0,7.0,31,0.00,,,0.00,weatherlink.com 1.10,2013-05-25 19:17:00,
2013-05-25 17:34:00,76.6,44.0,30.21,SSW,198,4.0,9.0,31,0.00,,,0.00,weatherlink.com 1.10,2013-05-25 19:34:00,
2013-05-25 17:50:00,75.8,50.0,30.21,North,349,1.0,14.0,40,0.00,,,0.00,weatherlink.com 1.10,2013-05-25 19:50:00,
2013-05-25 18:06:00,76.3,44.0,30.21,West,277,0.0,8.0,32,0.00,,,0.00,weatherlink.com 1.10,2013-05-25 20:06:00,
2013-05-25 18:23:00,76.6,45.0,30.21,WNW,283,8.0,9.0,33,0.00,,,0.00,weatherlink.com 1.10,2013-05-25 20:23:00,
2013-05-25 18:39:00,75.4,43.0,30.21,NNW,333,1.0,3.0,32,0.00,,,0.00,weatherlink.com 1.10,2013-05-25 20:39:00,
2013-05-25 18:55:00,77.1,47.0,21.43,South,187,5.0,5.0,34,0.00,,,0.00,weatherlink.com 1.10,2013-05-25 20:55:00,
2013-05-25 19:12:00,75.9,44.0,21.43,North,355,7.0,24.0,32,0.00,,,0.00,weatherlink.com 1.10,2013-05-25 21:12:00,
2013-05-25 19:28:00,73.0,44.0,21.43,NNW,335,11.0,12.0,36,0.00,,,0.00,weatherlink.com 1.10,2013-05-25 21:28:00,
2013-05-25 19:44:00,71.6,45.0,21.43,NNW,348,4.0,10.0,38,0.00,,,0.00,weatherlink.com 1.10,2013-05-25 21:44:00,
2013-05-25 20:01:00,72.1,46.0,21.43,NNW,327,3.0,8.0,39,0.00,,,0.00,weatherlink.com 1.10,2013-05-25 22:01:00,
2013-05-25 20:17:00,72.2,44.0,21.43,NNW,333,5.0,10.0,37,0.00,,,0.00,weatherlink.com 1.10,2013-05-25 22:17:00,
2013-05-25 20:34:00,72.6,43.0,21.43,North,349,3.0,9.0,35,0.00,,,0.00,weatherlink.com 1.10,2013-05-25 22:34:00,
2013-05-25 20:50:00,73.8,44.0,21.43,WNW,296,5.0,10.0,35,0.00,,,0.00,weatherlink.com 1.10,2013-05-25 22:50:00,
2013-05-25 21:07:00,73.2,46.0,21.43,NNW,329,4.0,11.0,38,0.00,,,0.00,weatherlink.com 1.10,2013-05-25 23:07:00,
2013-05-25 21:23:00,72.3,46.0,21.43,NW,309,4.0,7.0,39,0.00,,,0.00,weatherlink.com 1.10,2013-05-25 23:23:00,
2013-05-25 21:40:00,70.3,44.0,21.43,NW,311,5.0,5.0,39,0.00,,,0.00,weatherlink.com 1.10,2013-05-25 23:40:00,
2013-05-25 21:56:00,69.0,43.0,21.43,NNW,347,3.0,7.0,39,0.00,,,0.00,weatherlink.com 1.10,2013-05-25 23:56:00,
2013-05-25 22:12:00,68.0,42.0,21.43,NNW,337,2.0,7.0,39,0.00,,,0.00,weatherlink.com 1.10,2013-05-26 00:12:00,
2013-05-25 22:29:00,67.0,43.0,20.85,NNE,17,1.0,7.0,41,0.00,,,0.00,weatherlink.com 1.10,2013-05-26 00:29:00,
2013-05-25 22:45:00,65.5,44.0,20.85,NNE,14,2.0,3.0,45,0.00,,,0.00,weatherlink.com 1.10,2013-05-26 00:45:00,
2013-05-25 23:01:00,64.4,44.0,24.66,NNW,341,4.0,5.0,47,0.00,,,0.00,weatherlink.com 1.10,2013-05-26 01:01:00,
2013-05-25 23:18:00,64.8,44.0,24.66,NW,323,3.0,5.0,47,0.00,,,0.00,weatherlink.com 1.10,2013-05-26 01:18:00,
2013-05-25 23:35:00,62.6,46.0,24.66,NNW,336,2.0,4.0,54,0.00,,,0.00,weatherlink.com 1.10,2013-05-26 01:35:00,
2013-05-25 23:51:00,59.5,44.0,24.66,NNW,336,0.0,1.0,56,0.00,,,0.00,weatherlink.com 1.10,2013-05-26 01:51:00,